Regional Weather Roundup
Issued by NWS State College, PA

Home | Current Version | Previous Version | Graphics & Text | Print | Product List | Glossary On
Versions: 1 2 3 4 5 6 7 8 9 10 11 12 13 14 15 16 17 18 19 20 21 22 23 24 25 26 27 28 29 30 31 32 33 34 35 36 37 38 39 40 41 42 43 44 45 46 47 48 49 50
000
ASUS41 KCTP 260803
RWRCTP

REGIONAL WEATHER ROUNDUP
NATIONAL WEATHER SERVICE STATE COLLEGE PA
300 AM EST WED NOV 26 2014

Note: "fair" indicates few or no clouds below 12,000 feet with no
significant weather and/or obstructions to visibility.

* = STATION THAT DOES NOT REPORT PRECIPITATION /E.G. RAIN...SNOW...ETC/
    THUNDER OR FOG.

PAZ002>004-007>009-013>016-020>023-029>032-260900-
WESTERN PENNSYLVANIA

CITY           SKY/WX    TMP DP  RH WIND       PRES   REMARKS
ERIE           CLOUDY    34  25  69 S5        30.18S
MEADVILLE      CLOUDY    31  23  72 NE3       30.15S
FRANKLIN*      MOCLDY    28  23  80 CALM      30.17R
NEW CASTLE       N/A     28  25  89 CALM      30.20R
BEAVER COUNTY  NOT AVBL
BUTLER*        CLOUDY    27  25  93 CALM      30.18R
PITTSBURGH INT CLOUDY    31  25  78 CALM      30.17R
PITTSBURGH     CLOUDY    33  22  63 E3        30.16R
INDIANA*       PTCLDY    30  27  86 CALM      30.20S
LATROBE        CLOUDY    30  28  93 CALM      30.19R
WASHINGTON CO* CLOUDY    28  25  86 CALM      30.17R
$$

PAZ004>006-010>012-017>019-024>028-033>037-041-042-045-046-049>053-260900-
CENTRAL PENNSYLVANIA

CITY           SKY/WX    TMP DP  RH WIND       PRES   REMARKS
BRADFORD       CLOUDY    30  23  75 NE3       30.11F
DUBOIS         CLOUDY    28  25  88 CALM      30.13R
CLEARFIELD     CLOUDY    30  25  81 CALM      30.16S
JOHNSTOWN      CLOUDY    30  23  75 NE5       30.09F
ALTOONA        CLOUDY    33  27  78 CALM      30.15S
STATE COLLEGE  CLOUDY    33  26  77 W6        30.18R
WILLIAMSPORT   CLOUDY    33  28  81 CALM      30.19F
SELINSGROVE    CLOUDY    35  32  88 CALM      30.19F
FT INDIANTOWN  CLOUDY    42  29  61 NE6       30.16F
CAPITAL CITY   CLOUDY    42  32  67 CALM      30.16F
HARRISBURG     CLOUDY    41  33  73 N6        30.15F
YORK           CLOUDY    38  33  82 CALM      30.15F
$$

PAZ038>040-043-044-047-048-054-055-060>062-067>071-260900-
EASTERN PENNSYLVANIA

CITY           SKY/WX    TMP DP  RH WIND       PRES   REMARKS
SCRANTON       CLOUDY    39  27  62 N5        30.17F
MOUNT POCONO   CLOUDY    37  25  61 CALM      30.15R
ALLENTOWN      CLOUDY    38  32  79 N3        30.19R
QUAKERTOWN*    CLOUDY    37  32  81 CALM      30.19F
READING        CLOUDY    40  32  73 CALM      30.17F
LANCASTER      CLOUDY    39  32  76 E3        30.14F
COATESVILLE    CLOUDY    43  30  61 CALM      30.17F
POTTSTOWN      CLOUDY    40  33  76 CALM      30.19F
BLUE BELL      CLOUDY    41  37  87 CALM      30.18F
DOYLESTOWN     CLOUDY    40  36  86 SE3       30.19R
WILLOW GROVE   NOT AVBL
NORTH PHILA    CLOUDY    46  34  62 NE3       30.21R
PHILADELPHIA   CLOUDY    46  38  73 CALM      30.18F
$$



USA.gov is the U.S. government's official web portal to all federal, state and local government web resources and services.